This is the latest recevied weather packets stored in our database for station/object KI2K. If no packets are shown the sender has not sent any weather packets the latest 10 day(s).
| Time | Temp. | Humidity | Pressure | Rain* | Wind** | Luminosity | Snow |
|---|---|---|---|---|---|---|---|
| 1777913874 | 20° C | 68% | 1005.4 hPa | 0 mm | - | 274 W/m² | - |
| 1777913571 | 19.44° C | 69% | 1005.5 hPa | 0 mm | - | 301 W/m² | - |
| 1777913267 | 20° C | 69% | 1005.4 hPa | 0 mm | - | 252 W/m² | - |
| 1777912965 | 20° C | 68% | 1005.7 hPa | 0 mm | - | 285 W/m² | - |
| 1777912660 | 19.44° C | 68% | 1005.7 hPa | 0 mm | - | 411 W/m² | - |
| 1777912356 | 20° C | 67% | 1006.1 hPa | 0 mm | - | 275 W/m² | - |
| 1777912053 | 20.56° C | 67% | 1006 hPa | 0 mm | - | 337 W/m² | - |
| 1777911749 | 20.56° C | 68% | 1006.5 hPa | 0 mm | - | 380 W/m² | - |
| 1777911446 | 20° C | 68% | 1006.1 hPa | 0 mm | - | 396 W/m² | - |
| 1777911142 | 20° C | 67% | 1006.3 hPa | 0 mm | - | 347 W/m² | - |
| 1777910840 | 20° C | 66% | 1006.4 hPa | 0 mm | - | 311 W/m² | - |
| 1777910536 | 20° C | 67% | 1006.3 hPa | 0 mm | - | 321 W/m² | - |
| 1777910234 | 20° C | 67% | 1006.5 hPa | 0 mm | - | 362 W/m² | - |
| 1777909931 | 20° C | 67% | 1006.6 hPa | 0 mm | - | 575 W/m² | - |
| 1777909627 | 20.56° C | 66% | 1006.5 hPa | 0 mm | - | 685 W/m² | - |
| 1777909325 | 20.56° C | 66% | 1006.5 hPa | 0 mm | - | 652 W/m² | - |
| 1777909023 | 20° C | 66% | 1006.5 hPa | 0 mm | - | 731 W/m² | - |
| 1777908720 | 20.56° C | 65% | 1006.3 hPa | 0 mm | - | 763 W/m² | - |
| 1777908417 | 20° C | 65% | 1006.5 hPa | 0 mm | - | 688 W/m² | - |
| 1777908114 | 20° C | 65% | 1006.6 hPa | 0 mm | - | 821 W/m² | - |
| 1777907810 | 19.44° C | 66% | 1006.8 hPa | 0 mm | - | 540 W/m² | - |
| 1777907505 | 20° C | 65% | 1006.7 hPa | 0 mm | - | 612 W/m² | - |
| 1777907202 | 19.44° C | 65% | 1006.7 hPa | 0 mm | - | 753 W/m² | - |
| 1777906899 | 20° C | 65% | 1006.8 hPa | 0 mm | - | 368 W/m² | - |
| 1777906596 | 19.44° C | 66% | 1006.9 hPa | 0 mm | - | 445 W/m² | - |
* Rain latest hour (hover to see other rain measurements)
** Current wind speed in m/s (hover to see current wind gust speed)